Location: Banksville Park
(38.5557°N, 75.1182°W)
Time: 15:13:11
(UTC+00:00)

Cosmos 2333 Rocket - Pass Details

Date: 19 September 2020
Orbit: 839 x 862 km, 70.8° (Epoch: 27 October)

Event Time Altitude Azimuth Distance (km) Brightness Sun altitude
Rises 10:05:49 0° 178° (S) 3,420 5.3 -8.6°
Reaches altitude 10° 10:08:25 10° 170° (S) 2,489 4.7 -8.1°
Maximum altitude 10:13:38 37° 105° (ESE) 1,307 3.9 -7.1°
Drops below altitude 10° 10:18:52 10° 39° (NE) 2,505 5.4 -6.1°
Sets 10:21:30 0° 32° (NNE) 3,445 6.0 -5.6°
